Tracking 25711 objects as of 22-May-2022
HD Live streaming from Space Station
objects crossing your sky now

CZ-2C R/B

Track CZ-2C R/B now!
10-day predictions


NORAD ID: 37731
Int'l Code: 2011-030B
Perigee: 610.6 km
Apogee: 694.0 km
Inclination: 97.7 °
Period: 97.6 minutes
Semi major axis: 7023 km
RCS: 8.527 m2 (large)
Launch date: July 6, 2011
Source: People's Republic of China (PRC)
Launch site: Jiuquan Satellite Launch Center, China (JSC)

Note: This is a ROCKET BODY
aabbcc
Your satellite tracking list
Your tracking list is empty




NASA's NSSDC Master Catalog

Two Line Element Set (TLE):
1 37731U 11030B   22142.54561007  .00001104  00000-0  16672-3 0  9996
2 37731  97.6707 130.5134 0059310 170.6390 302.2014 14.74995443585235
Source of the keplerian elements: AFSPC